Tracking 28091 objects as of 30-Sep-2023
HD Live streaming from Space Station
objects crossing your sky now

STARLINK-3605

Track STARLINK-3605 now!
10-day predictions
STARLINK-3605 is classified as:


NORAD ID: 51805
Int'l Code: 2022-017AP
Perigee: 545.9 km
Apogee: 547.9 km
Inclination: 53.2 °
Period: 95.4 minutes
Semi major axis: 6917 km
RCS: Unknown
Launch date: February 25, 2022
Source: United States (US)
Launch site: AIR FORCE WESTERN TEST RANGE (AFWTR)
Your satellite tracking list
Your tracking list is empty




NASA's NSSDC Master Catalog

Two Line Element Set (TLE):
1 51805U 22017AP  23272.57041207  .00001797  00000-0  13095-3 0  9998
2 51805  53.2179  14.0740 0001434  88.9042 271.2115 15.08843443 89564
Source of the keplerian elements: AFSPC